Vidnoe — UBDU — position and weather

sailwx.info

Track history (hours):
 
Tides and Currents Weather Stations Pressure Air Temp Water Temp Dewpoint Dewpoint Depression Visibility Wind Speed Wind Dir Waves Ship Positions

Vidnoe

Last reported at 2014-Aug-01 02:09 UTC. Time now 2014-Aug-01 03:46 UTC.
Position N 70°11' E 016°26'.

Length 115 m; beam 17 m.

Type: Pleasure craft. MMSI: 273516400.

Date/timePositionNaut miles runAvg speedWind from/ knotsBaromVisibWave heightAir tempDewpointWater temp
2014-Aug-01 02:09N 70°11' E 016°26'  
2014-Jul-29 03:22N 58°23' E 005°23'910.7
2014-Jul-29 02:33N 58°17' E 005°36'1111.3
2014-Jul-29 01:33N 58°10' E 005°52'1110.8
2014-Jul-29 00:33N 58°03' E 006°07'7310.5
2014-Jul-28 17:33N 57°48' E 008°23'1110.5
2014-Jul-28 16:30N 57°48' E 008°43'1310.3
2014-Jul-28 15:13N 57°49' E 009°08'810.5
2014-Jul-28 14:25N 57°49' E 009°24'2510.8
2014-Jul-28 12:06N 57°49' E 010°11'610.8
2014-Jul-28 11:33N 57°49' E 010°22'1110.9
2014-Jul-28 10:33N 57°49' E 010°43'1110.6
2014-Jul-28 09:33N 57°42' E 010°57'1111.1
2014-Jul-28 08:33N 57°34' E 011°12'1111.0
2014-Jul-28 07:33N 57°26' E 011°26'1111.2
2014-Jul-28 06:33N 57°16' E 011°33'1110.9
2014-Jul-28 05:33N 57°06' E 011°40'1111.0
2014-Jul-28 04:33N 56°55' E 011°47'1111.0
2014-Jul-28 03:34N 56°45' E 011°53'1211.5
2014-Jul-28 02:33N 56°35' E 011°42'1111.0
2014-Jul-28 01:32N 56°25' E 011°32'1211.0
2014-Jul-28 00:29N 56°15' E 011°22'1011.1
2014-Jul-27 23:32N 56°07' E 011°10'8510.2
2014-Jul-27 15:11N 54°42' E 010°54'711.7
2014-Jul-27 14:33N 54°38' E 011°05'1212.1
2014-Jul-27 13:33N 54°33' E 011°24'1111.1
2014-Jul-27 12:33N 54°28' E 011°41'1111.2
2014-Jul-27 11:33N 54°26' E 011°60'1010.0
2014-Jul-27 10:33N 54°33' E 012°13'1110.7
2014-Jul-27 09:33N 54°41' E 012°25'1111.0
2014-Jul-27 08:33N 54°47' E 012°41'1110.7
2014-Jul-27 07:33N 54°51' E 012°58'1111.3
2014-Jul-27 06:33N 54°55' E 013°16'1111.4
2014-Jul-27 05:33N 54°59' E 013°35'1111.4
2014-Jul-27 04:33N 55°03' E 013°54'1111.1
2014-Jul-27 03:33N 55°09' E 014°09'1211.7
2014-Jul-27 02:33N 55°18' E 014°23'1211.7
2014-Jul-27 01:31N 55°27' E 014°37'1111.3
2014-Jul-27 00:33N 55°33' E 014°54'1111.1
2014-Jul-26 23:33N 55°38' E 015°11'1111.4
2014-Jul-26 22:33N 55°41' E 015°30'1111.5
2014-Jul-26 21:33N 55°44' E 015°50'1211.7
2014-Jul-26 20:33N 55°47' E 016°10'1212.0
2014-Jul-26 19:33N 55°50' E 016°31'1212.0
2014-Jul-26 18:33N 55°52' E 016°52'1211.9
2014-Jul-26 17:33N 55°55' E 017°12'1211.9
2014-Jul-26 16:33N 55°58' E 017°33'1211.5
2014-Jul-26 15:33N 56°03' E 017°51'1211.5
2014-Jul-26 14:33N 56°09' E 018°09'1111.4
2014-Jul-26 13:33N 56°15' E 018°26'1111.5
2014-Jul-26 12:33N 56°22' E 018°44'1111.4
2014-Jul-26 11:33N 56°31' E 018°55'1111.4
2014-Jul-26 10:33N 56°41' E 019°04'1211.5
2014-Jul-26 09:33N 56°51' E 019°14'1111.4
2014-Jul-26 08:33N 57°01' E 019°24'3411.5
2014-Jul-26 05:34N 57°32' E 019°52'1111.4
2014-Jul-26 04:34N 57°43' E 020°00'1211.5
2014-Jul-26 03:33N 57°53' E 020°09'2311.6
2014-Jul-26 01:33N 58°15' E 020°27'1211.7
2014-Jul-26 00:33N 58°25' E 020°38'1211.7
2014-Jul-25 23:33N 58°35' E 020°50'1211.6
2014-Jul-25 22:33N 58°44' E 021°03'1211.5
2014-Jul-25 21:33N 58°54' E 021°15'1211.7
2014-Jul-25 20:33N 59°03' E 021°28'1111.1
2014-Jul-25 19:34N 59°12' E 021°42'1211.7
2014-Jul-25 18:33N 59°19' E 022°01'1211.6
2014-Jul-25 17:33N 59°26' E 022°19'7 7.2
2014-Jul-25 16:33N 59°30' E 022°30'1110.9
2014-Jul-25 15:33N 59°34' E 022°51'1212.0
2014-Jul-25 14:33N 59°37' E 023°14'6 6.3
2014-Jul-25 13:33N 59°39' E 023°26'1110.8
2014-Jul-25 12:33N 59°42' E 023°46'1212.0
2014-Jul-25 11:33N 59°45' E 024°09'3 2.6
2014-Jul-25 10:33N 59°47' E 024°12'4 3.8
2014-Jul-25 09:33N 59°47' E 024°20'1010.3
2014-Jul-25 08:33N 59°49' E 024°40'1111.0
2014-Jul-25 07:33N 59°51' E 025°01'1111.3
2014-Jul-25 06:33N 59°53' E 025°23'1111.3
2014-Jul-25 05:33N 59°55' E 025°46'1111.2
2014-Jul-25 04:33N 59°58' E 026°07'1111.0
2014-Jul-25 03:33N 60°01' E 026°29'1110.5
2014-Jul-25 02:33N 60°00' E 026°50'9 9.4
2014-Jul-25 01:33N 60°01' E 027°08'1111.4
2014-Jul-25 00:33N 60°07' E 027°28'8110.9
2014-Jul-24 17:10N 59°54' E 030°08'3 1.0
2014-Jul-24 14:15N 59°53' E 030°13'0 0.0
2014-Jul-24 13:32N 59°53' E 030°13'0 0.0
2014-Jul-24 12:28N 59°53' E 030°13'0 0.0
2014-Jul-24 11:32N 59°53' E 030°13'0 0.0
2014-Jul-24 10:33N 59°53' E 030°13'0 0.0
2014-Jul-24 09:32N 59°53' E 030°13'0 0.0
2014-Jul-24 08:31N 59°53' E 030°13'0 0.0
2014-Jul-24 07:33N 59°53' E 030°13'0 0.0
2014-Jul-24 05:31N 59°53' E 030°13'0 0.0
2014-Jul-24 04:32N 59°53' E 030°13'0 0.0
2014-Jul-24 03:32N 59°53' E 030°13'0 0.0
2014-Jul-24 02:32N 59°53' E 030°13'0 0.0
2014-Jul-24 01:33N 59°53' E 030°13'0 0.0
2014-Jul-24 00:33N 59°53' E 030°13'0 0.0
2014-Jul-23 23:33N 59°53' E 030°13'0 0.0
2014-Jul-23 22:33N 59°53' E 030°13'0 0.0
2014-Jul-23 21:33N 59°53' E 030°13'0 0.0
2014-Jul-23 20:33N 59°53' E 030°13'0 0.0
2014-Jul-23 19:33N 59°53' E 030°13'0 0.0
2014-Jul-23 18:33N 59°53' E 030°13'0 0.0
2014-Jul-23 17:33N 59°53' E 030°13'0 0.0
2014-Jul-23 16:33N 59°53' E 030°13'0 0.0
2014-Jul-23 15:33N 59°53' E 030°13'0 0.0
2014-Jul-23 14:33N 59°53' E 030°13'0 0.0
2014-Jul-23 13:33N 59°53' E 030°13'0 0.0
2014-Jul-23 12:33N 59°53' E 030°13'0 0.0
2014-Jul-23 11:32N 59°53' E 030°13'0 0.0
2014-Jul-23 10:33N 59°53' E 030°13'0 0.0
2014-Jul-23 09:33N 59°53' E 030°13'0 0.0
2014-Jul-23 08:33N 59°53' E 030°13'0 0.0
2014-Jul-23 07:33N 59°53' E 030°13'0 0.0
2014-Jul-23 06:33N 59°53' E 030°13'0 0.0
2014-Jul-23 05:33N 59°53' E 030°13'0 0.0
2014-Jul-23 04:33N 59°53' E 030°13'0 0.0
2014-Jul-23 03:30N 59°53' E 030°13'0 0.0
2014-Jul-23 02:33N 59°53' E 030°13'0 0.0
2014-Jul-23 01:33N 59°53' E 030°13'0 0.0
2014-Jul-23 00:31N 59°53' E 030°13'0 0.0
2014-Jul-22 23:33N 59°53' E 030°13'0 0.0
2014-Jul-22 22:33N 59°53' E 030°13'0 0.0
2014-Jul-22 21:33N 59°53' E 030°13'0 0.0
2014-Jul-22 20:33N 59°53' E 030°13'0 0.0
2014-Jul-22 19:32N 59°53' E 030°13'0 0.0
2014-Jul-22 17:32N 59°53' E 030°13'0 0.0
2014-Jul-22 16:15N 59°53' E 030°13'0 0.0
2014-Jul-22 15:24N 59°53' E 030°13'0 0.0
2014-Jul-22 14:23N 59°53' E 030°13'0 0.0
2014-Jul-22 13:32N 59°53' E 030°13'0 0.0
2014-Jul-22 12:32N 59°53' E 030°13'0 0.0
2014-Jul-22 11:31N 59°53' E 030°13'0 0.0
2014-Jul-22 10:33N 59°53' E 030°13'0 0.0
2014-Jul-22 09:33N 59°53' E 030°13'0 0.0
2014-Jul-22 08:33N 59°53' E 030°13'0 0.0
2014-Jul-22 07:33N 59°53' E 030°13'0 0.0
2014-Jul-22 06:33N 59°53' E 030°13'0 0.0
2014-Jul-22 05:33N 59°53' E 030°13'0 0.0
2014-Jul-22 04:33N 59°53' E 030°13'0 0.0
2014-Jul-22 03:33N 59°53' E 030°13'0 0.0
2014-Jul-22 02:33N 59°53' E 030°13'  
Track history (hours):
 
Tides and Currents Weather Stations Pressure Air Temp Water Temp Dewpoint Dewpoint Depression Visibility Wind Speed Wind Dir Waves Ship Positions

Vidnoe

Last reported at 2014-Aug-01 02:09 UTC. Time now 2014-Aug-01 03:46 UTC.
Position N 70°11' E 016°26'.

Length 115 m; beam 17 m.

Type: Pleasure craft. MMSI: 273516400.

Date/timePositionNaut miles runAvg speedWind from/ knotsBaromVisibWave heightAir tempDewpointWater temp
2014-Aug-01 02:09N 70°11' E 016°26'  
2014-Jul-29 03:22N 58°23' E 005°23'910.7
2014-Jul-29 02:33N 58°17' E 005°36'1111.3
2014-Jul-29 01:33N 58°10' E 005°52'1110.8
2014-Jul-29 00:33N 58°03' E 006°07'7310.5
2014-Jul-28 17:33N 57°48' E 008°23'1110.5
2014-Jul-28 16:30N 57°48' E 008°43'1310.3
2014-Jul-28 15:13N 57°49' E 009°08'810.5
2014-Jul-28 14:25N 57°49' E 009°24'2510.8
2014-Jul-28 12:06N 57°49' E 010°11'610.8
2014-Jul-28 11:33N 57°49' E 010°22'1110.9
2014-Jul-28 10:33N 57°49' E 010°43'1110.6
2014-Jul-28 09:33N 57°42' E 010°57'1111.1
2014-Jul-28 08:33N 57°34' E 011°12'1111.0
2014-Jul-28 07:33N 57°26' E 011°26'1111.2
2014-Jul-28 06:33N 57°16' E 011°33'1110.9
2014-Jul-28 05:33N 57°06' E 011°40'1111.0
2014-Jul-28 04:33N 56°55' E 011°47'1111.0
2014-Jul-28 03:34N 56°45' E 011°53'1211.5
2014-Jul-28 02:33N 56°35' E 011°42'1111.0
2014-Jul-28 01:32N 56°25' E 011°32'1211.0
2014-Jul-28 00:29N 56°15' E 011°22'1011.1
2014-Jul-27 23:32N 56°07' E 011°10'8510.2
2014-Jul-27 15:11N 54°42' E 010°54'711.7
2014-Jul-27 14:33N 54°38' E 011°05'1212.1
2014-Jul-27 13:33N 54°33' E 011°24'1111.1
2014-Jul-27 12:33N 54°28' E 011°41'1111.2
2014-Jul-27 11:33N 54°26' E 011°60'1010.0
2014-Jul-27 10:33N 54°33' E 012°13'1110.7
2014-Jul-27 09:33N 54°41' E 012°25'1111.0
2014-Jul-27 08:33N 54°47' E 012°41'1110.7
2014-Jul-27 07:33N 54°51' E 012°58'1111.3
2014-Jul-27 06:33N 54°55' E 013°16'1111.4
2014-Jul-27 05:33N 54°59' E 013°35'1111.4
2014-Jul-27 04:33N 55°03' E 013°54'1111.1
2014-Jul-27 03:33N 55°09' E 014°09'1211.7
2014-Jul-27 02:33N 55°18' E 014°23'1211.7
2014-Jul-27 01:31N 55°27' E 014°37'1111.3
2014-Jul-27 00:33N 55°33' E 014°54'1111.1
2014-Jul-26 23:33N 55°38' E 015°11'1111.4
2014-Jul-26 22:33N 55°41' E 015°30'1111.5
2014-Jul-26 21:33N 55°44' E 015°50'1211.7
2014-Jul-26 20:33N 55°47' E 016°10'1212.0
2014-Jul-26 19:33N 55°50' E 016°31'1212.0
2014-Jul-26 18:33N 55°52' E 016°52'1211.9
2014-Jul-26 17:33N 55°55' E 017°12'1211.9
2014-Jul-26 16:33N 55°58' E 017°33'1211.5
2014-Jul-26 15:33N 56°03' E 017°51'1211.5
2014-Jul-26 14:33N 56°09' E 018°09'1111.4
2014-Jul-26 13:33N 56°15' E 018°26'1111.5
2014-Jul-26 12:33N 56°22' E 018°44'1111.4
2014-Jul-26 11:33N 56°31' E 018°55'1111.4
2014-Jul-26 10:33N 56°41' E 019°04'1211.5
2014-Jul-26 09:33N 56°51' E 019°14'1111.4
2014-Jul-26 08:33N 57°01' E 019°24'3411.5
2014-Jul-26 05:34N 57°32' E 019°52'1111.4
2014-Jul-26 04:34N 57°43' E 020°00'1211.5
2014-Jul-26 03:33N 57°53' E 020°09'2311.6
2014-Jul-26 01:33N 58°15' E 020°27'1211.7
2014-Jul-26 00:33N 58°25' E 020°38'1211.7
2014-Jul-25 23:33N 58°35' E 020°50'1211.6
2014-Jul-25 22:33N 58°44' E 021°03'1211.5
2014-Jul-25 21:33N 58°54' E 021°15'1211.7
2014-Jul-25 20:33N 59°03' E 021°28'1111.1
2014-Jul-25 19:34N 59°12' E 021°42'1211.7
2014-Jul-25 18:33N 59°19' E 022°01'1211.6
2014-Jul-25 17:33N 59°26' E 022°19'7 7.2
2014-Jul-25 16:33N 59°30' E 022°30'1110.9
2014-Jul-25 15:33N 59°34' E 022°51'1212.0
2014-Jul-25 14:33N 59°37' E 023°14'6 6.3
2014-Jul-25 13:33N 59°39' E 023°26'1110.8
2014-Jul-25 12:33N 59°42' E 023°46'1212.0
2014-Jul-25 11:33N 59°45' E 024°09'3 2.6
2014-Jul-25 10:33N 59°47' E 024°12'4 3.8
2014-Jul-25 09:33N 59°47' E 024°20'1010.3
2014-Jul-25 08:33N 59°49' E 024°40'1111.0
2014-Jul-25 07:33N 59°51' E 025°01'1111.3
2014-Jul-25 06:33N 59°53' E 025°23'1111.3
2014-Jul-25 05:33N 59°55' E 025°46'1111.2
2014-Jul-25 04:33N 59°58' E 026°07'1111.0
2014-Jul-25 03:33N 60°01' E 026°29'1110.5
2014-Jul-25 02:33N 60°00' E 026°50'9 9.4
2014-Jul-25 01:33N 60°01' E 027°08'1111.4
2014-Jul-25 00:33N 60°07' E 027°28'8110.9
2014-Jul-24 17:10N 59°54' E 030°08'3 1.0
2014-Jul-24 14:15N 59°53' E 030°13'0 0.0
2014-Jul-24 13:32N 59°53' E 030°13'0 0.0
2014-Jul-24 12:28N 59°53' E 030°13'0 0.0
2014-Jul-24 11:32N 59°53' E 030°13'0 0.0
2014-Jul-24 10:33N 59°53' E 030°13'0 0.0
2014-Jul-24 09:32N 59°53' E 030°13'0 0.0
2014-Jul-24 08:31N 59°53' E 030°13'0 0.0
2014-Jul-24 07:33N 59°53' E 030°13'0 0.0
2014-Jul-24 05:31N 59°53' E 030°13'0 0.0
2014-Jul-24 04:32N 59°53' E 030°13'0 0.0
2014-Jul-24 03:32N 59°53' E 030°13'0 0.0
2014-Jul-24 02:32N 59°53' E 030°13'0 0.0
2014-Jul-24 01:33N 59°53' E 030°13'0 0.0
2014-Jul-24 00:33N 59°53' E 030°13'0 0.0
2014-Jul-23 23:33N 59°53' E 030°13'0 0.0
2014-Jul-23 22:33N 59°53' E 030°13'0 0.0
2014-Jul-23 21:33N 59°53' E 030°13'0 0.0
2014-Jul-23 20:33N 59°53' E 030°13'0 0.0
2014-Jul-23 19:33N 59°53' E 030°13'0 0.0
2014-Jul-23 18:33N 59°53' E 030°13'0 0.0
2014-Jul-23 17:33N 59°53' E 030°13'0 0.0
2014-Jul-23 16:33N 59°53' E 030°13'0 0.0
2014-Jul-23 15:33N 59°53' E 030°13'0 0.0
2014-Jul-23 14:33N 59°53' E 030°13'0 0.0
2014-Jul-23 13:33N 59°53' E 030°13'0 0.0
2014-Jul-23 12:33N 59°53' E 030°13'0 0.0
2014-Jul-23 11:32N 59°53' E 030°13'0 0.0
2014-Jul-23 10:33N 59°53' E 030°13'0 0.0
2014-Jul-23 09:33N 59°53' E 030°13'0 0.0
2014-Jul-23 08:33N 59°53' E 030°13'0 0.0
2014-Jul-23 07:33N 59°53' E 030°13'0 0.0
2014-Jul-23 06:33N 59°53' E 030°13'0 0.0
2014-Jul-23 05:33N 59°53' E 030°13'0 0.0
2014-Jul-23 04:33N 59°53' E 030°13'0 0.0
2014-Jul-23 03:30N 59°53' E 030°13'0 0.0
2014-Jul-23 02:33N 59°53' E 030°13'0 0.0
2014-Jul-23 01:33N 59°53' E 030°13'0 0.0
2014-Jul-23 00:31N 59°53' E 030°13'0 0.0
2014-Jul-22 23:33N 59°53' E 030°13'0 0.0
2014-Jul-22 22:33N 59°53' E 030°13'0 0.0
2014-Jul-22 21:33N 59°53' E 030°13'0 0.0
2014-Jul-22 20:33N 59°53' E 030°13'0 0.0
2014-Jul-22 19:32N 59°53' E 030°13'0 0.0
2014-Jul-22 17:32N 59°53' E 030°13'0 0.0
2014-Jul-22 16:15N 59°53' E 030°13'0 0.0
2014-Jul-22 15:24N 59°53' E 030°13'0 0.0
2014-Jul-22 14:23N 59°53' E 030°13'0 0.0
2014-Jul-22 13:32N 59°53' E 030°13'0 0.0
2014-Jul-22 12:32N 59°53' E 030°13'0 0.0
2014-Jul-22 11:31N 59°53' E 030°13'0 0.0
2014-Jul-22 10:33N 59°53' E 030°13'0 0.0
2014-Jul-22 09:33N 59°53' E 030°13'0 0.0
2014-Jul-22 08:33N 59°53' E 030°13'0 0.0
2014-Jul-22 07:33N 59°53' E 030°13'0 0.0
2014-Jul-22 06:33N 59°53' E 030°13'0 0.0
2014-Jul-22 05:33N 59°53' E 030°13'0 0.0
2014-Jul-22 04:33N 59°53' E 030°13'0 0.0
2014-Jul-22 03:33N 59°53' E 030°13'0 0.0
2014-Jul-22 02:33N 59°53' E 030°13'  

Dump ship's entire track history